COSMOS 628

Satellite information

Favourite Embed

Satellite Type and Status

PAYLOADIN ORBIT

Key statistics

Satellite COSMOS 628 at a glance.

Uptime

18739

Days in orbit

Revolutions

≈ 13.8

Per day

Orbit

LEO

Low Earth Orbit

Inclination

83.0

Latest

Satellite identification and parameters

Extended collection of information and parameters for COSMOS 628.

Object identification

Identified? True

Debris? False

Object name: COSMOS 628

International designator: 1974-001A

Object number (NORAD): 7094

Object ID (CCSDS): 7094

Country: COMMONWEALTH OF INDEPENDENT STATES (CIS)

Current information (Y/N): Y

RCS size: LARGE

Orbital parameters

Period: 104.657 minutes

Inclination: 82.9527 deg

SMA: 7356.502 km

Apoapsis: 1004.958 km

Periapsis: 951.776 km

RAAN: 122.123 deg

Eccentricy: 0.0036146

Argument of periapsis: 193.2361 deg

Mean anomaly: 283.3415 deg

Mean motion: 13.75928045 rev/day

Mean motion (dot): 0.00000074 rev/day2

B* drag term: 0.000060686 1/REarth

Two-line elements (TLE)

Creation date: May 7, 2025, 2:26 p.m.

Reference frame: TEME

Reference center: EARTH

Epoch: May 7, 2025, 12:28 p.m. UTC

TLE line 0: 0 COSMOS 628

TLE line 1: 1 7094U 74001A 25127.51948263 .00000074 00000-0 60686-4 0 9998

TLE line 2: 2 7094 82.9527 122.1230 0036146 193.2361 283.3415 13.75928045575110

Live tracking on map

Real-time ground track for satellite COSMOS 628.

In-orbit conjunctions

A list of the most updated potential collisions computed for object COSMOS 628.

Target Orbit TCA Probability of collision Miss distance Type
YAOGAN 30 DEB SSO 2024-06-30 03:46:10 0.0001710607 164.0 (m) DEBRIS

Associated space launch

The first soviet navigation system called Tsiklon consisted of Zaliv satellites in low earth orbit.

COSMOS 628 was lifted into orbit during the mission ‘Kosmos-3M | Zaliv 16’, on board a Kosmos-3M space rocket.

The launch took place on Jan. 17, 1974, 10:07 a.m. from 132/2.

For more information about the launch, click the button.

Launch to space Kosmos-3M | Zaliv 16
Kosmos-3M | Zaliv 16

Agency: N/A

Status: Launch Successful

Launch date: Jan. 17, 1974, 10:07 a.m. UTC

Rocket: Kosmos-3M

Launch pad: 132/2

Location: Plesetsk Cosmodrome, Russian Federation

...

Latest news about this satellite

There are no fresh news available about this satellite. Check back as we update our databases every day.


Newsletter sign-up

Weekly statistics, charts and insights to help you stay on top of the space industry.